Weather History for Blue Canyon, CA

Change the Weather History Date:

Sunday, May 12, 2013

  Actual Average Record
Temperature  
Mean Temperature 68 °F -  
Max Temperature 73 °F 63 °F 82 °F (1976)
Min Temperature 63 °F 44 °F 28 °F (1951)
Cooling Degree Days 3    
Growing Degree Days 18 (Base 50)    
Moisture  
Dew Point 38 °F    
Average Humidity 34    
Maximum Humidity 54    
Minimum Humidity 23    
Precipitation  
Precipitation 0.00 in - - ()
Sea Level Pressure  
Sea Level Pressure 30.06 in    
Wind  
Wind Speed 4 mph (SSE)    
Max Wind Speed 14 mph    
Max Gust Speed 22 mph    
Visibility 10 miles    
Events      
Averages and records for this station are not official NWS values.
T = Trace of Precipitation, MM = Missing Value Source: NWS Daily Summary

Daily Weather History Graph

Daily Weather History Graph

Search for Another Location

Airport:

Trip Planner

Search our weather history database for the weather conditions in past years. The results will help you decide how hot, cold, wet, or windy it might be!

Date:

Astronomy

May. 12, 2013 Rise Set
Actual Time 5:51 AM PDT 8:07 PM PDT
Civil Twilight 5:21 AM PDT 8:37 PM PDT
Nautical Twilight 4:45 AM PDT 9:14 PM PDT
Astronomical Twilight 4:04 AM PDT 9:54 PM PDT
Moon 7:51 AM PDT (5/12) 10:37 PM PDT (5/12)
Length of Visible Light 15h 15m
Length of Day
14h 15m
Waxing Crescent, 7% of the Moon is Illuminated
May 12
Waxing Crescent
May 17
First Quarter
May 24
Full
May 31
Last Quarter
Jun 8
New

Hourly Weather History & Observations

Time (PDT) Temp. Dew Point Humidity Pressure Visibility Wind Dir Wind Speed Gust Speed Precip Events Conditions
12:52 AM 64.9 °F 41.0 °F 42% 30.06 in 10.0 mi Calm Calm - N/A   Clear
1:52 AM 64.9 °F 42.1 °F 43% 30.06 in 10.0 mi Calm Calm - N/A   Clear
2:52 AM 64.0 °F 44.1 °F 48% 30.06 in 10.0 mi Calm Calm - N/A   Clear
3:52 AM 63.0 °F 45.0 °F 52% 30.06 in 10.0 mi East 3.5 mph - N/A   Clear
4:52 AM 63.0 °F 46.0 °F 54% 30.06 in 10.0 mi East 3.5 mph - N/A   Clear
5:52 AM 63.0 °F 39.9 °F 43% 30.07 in 10.0 mi East 3.5 mph - N/A   Clear
7:52 AM 66.9 °F 37.9 °F 34% 30.10 in 10.0 mi Calm Calm - N/A   Clear
8:52 AM 69.1 °F 36.0 °F 30% 30.10 in 10.0 mi SSE 6.9 mph - N/A   Clear
9:52 AM 70.0 °F 30.0 °F 23% 30.10 in 10.0 mi South 9.2 mph - N/A   Clear
10:52 AM 70.0 °F 37.0 °F 30% 30.10 in 10.0 mi South 10.4 mph - N/A   Clear
11:52 AM 72.0 °F 37.0 °F 28% 30.09 in 10.0 mi South 10.4 mph 16.1 mph N/A   Clear
12:52 PM 73.0 °F 35.1 °F 25% 30.09 in 10.0 mi South 13.8 mph 21.9 mph N/A   Clear
1:52 PM 73.9 °F 37.0 °F 26% 30.07 in 10.0 mi Variable 5.8 mph 18.4 mph N/A   Clear
2:52 PM 73.9 °F 37.0 °F 26% 30.07 in 10.0 mi South 10.4 mph 20.7 mph N/A   Clear
3:52 PM 73.9 °F 36.0 °F 25% 30.05 in 10.0 mi South 11.5 mph 17.3 mph N/A   Clear
4:52 PM 72.0 °F 34.0 °F 25% 30.05 in 10.0 mi SW 8.1 mph - N/A   Clear
5:52 PM 71.1 °F 35.1 °F 27% 30.04 in 10.0 mi South 6.9 mph - N/A   Clear
6:52 PM 69.1 °F 36.0 °F 30% 30.03 in 10.0 mi South 5.8 mph - N/A   Clear
7:52 PM 66.0 °F 37.9 °F 36% 30.02 in 10.0 mi South 3.5 mph - N/A   Clear
8:52 PM 66.0 °F 36.0 °F 33% 30.01 in 10.0 mi SE 3.5 mph - N/A   Clear
9:52 PM 64.9 °F 37.9 °F 37% 30.02 in 10.0 mi Calm Calm - N/A   Clear
10:52 PM 64.9 °F 35.1 °F 33% 30.02 in 10.0 mi SE 3.5 mph - N/A   Clear
11:52 PM 64.0 °F 33.1 °F 31% 30.01 in 10.0 mi Calm Calm - N/A   Clear